Weather History for Columbia, SC

Change the Weather History Date:

Wednesday, November 21, 2012

  Actual Average Record
Temperature  
Mean Temperature 52 °F 53 °F  
Max Temperature 67 °F 66 °F 81 °F (1942)
Min Temperature 36 °F 41 °F 19 °F (1951)
Degree Days  
Heating Degree Days 13 12  
Month to date heating degree days 228 198  
Since 1 July heating degree days 308 318  
Cooling Degree Days 0 0  
Month to date cooling degree days 0 14  
Year to date cooling degree days 2505 2166  
Moisture  
Dew Point 37 °F    
Average Humidity 62    
Maximum Humidity 92    
Minimum Humidity 32    
Precipitation  
Precipitation 0.00 in 0.09 in 1.39 in (2006)
Month to date precipitation 1.55 1.86  
Year to date precipitation 39.18 40.49  
Sea Level Pressure  
Sea Level Pressure 30.12 in    
Wind  
Wind Speed 2 mph (NNE)    
Max Wind Speed 12 mph    
Max Gust Speed 16 mph    
Visibility 10 miles    
Events      
T = Trace of Precipitation, MM = Missing Value Source: NWS Daily Summary

Daily Weather History Graph

Daily Weather History Graph

Search for Another Location

Airport:

Trip Planner

Search our weather history database for the weather conditions in past years. The results will help you decide how hot, cold, wet, or windy it might be!

Date:

Astronomy

Nov. 21, 2012 Rise Set
Actual Time 7:02 AM EST 5:17 PM EST
Civil Twilight 6:36 AM EST 5:44 PM EST
Nautical Twilight 6:05 AM EST 6:15 PM EST
Astronomical Twilight 5:35 AM EST 6:44 PM EST
Moon 1:18 PM EST (11/21) 12:37 AM EST (11/21)
Length of Visible Light 11h 08m
Length of Day
10h 14m
First Quarter, 61% of the Moon is Illuminated
Nov 21
First Quarter
Nov 28
Full
Dec 6
Last Quarter
Dec 13
New
Dec 20
First Quarter

Hourly Weather History & Observations

Time (EST) Temp. Dew Point Humidity Pressure Visibility Wind Dir Wind Speed Gust Speed Precip Events Conditions
12:56 AM 42.1 °F 39.0 °F 89% 30.09 in 10.0 mi Calm Calm - N/A   Clear
1:56 AM 39.9 °F 37.0 °F 89% 30.08 in 10.0 mi Calm Calm - N/A   Clear
2:56 AM 39.0 °F 36.0 °F 89% 30.08 in 10.0 mi Calm Calm - N/A   Clear
3:56 AM 37.9 °F 35.1 °F 89% 30.09 in 10.0 mi Calm Calm - N/A   Clear
4:56 AM 37.9 °F 35.1 °F 89% 30.09 in 10.0 mi Calm Calm - N/A   Clear
5:56 AM 37.0 °F 34.0 °F 89% 30.10 in 9.0 mi Calm Calm - N/A   Clear
6:56 AM 35.6 °F 33.8 °F 93% 30.12 in 10.0 mi Calm Calm - N/A   Scattered Clouds
7:56 AM 37.9 °F 35.1 °F 89% 30.14 in 6.0 mi Calm Calm - N/A   Mostly Cloudy
8:56 AM 46.0 °F 43.0 °F 89% 30.16 in 6.0 mi Calm Calm - N/A   Mostly Cloudy
9:56 AM 54.0 °F 44.1 °F 69% 30.17 in 10.0 mi Variable 3.5 mph - N/A   Scattered Clouds
10:56 AM 57.9 °F 43.0 °F 58% 30.16 in 10.0 mi NE 4.6 mph - N/A   Scattered Clouds
11:56 AM 62.1 °F 43.0 °F 50% 30.14 in 10.0 mi North 6.9 mph - N/A   Scattered Clouds
12:56 PM 64.0 °F 36.0 °F 35% 30.12 in 10.0 mi NE 4.6 mph - N/A   Scattered Clouds
1:56 PM 66.0 °F 36.0 °F 33% 30.09 in 10.0 mi NNE 9.2 mph - N/A   Scattered Clouds
2:56 PM 66.2 °F 35.6 °F 32% 30.09 in 10.0 mi North 8.1 mph - N/A   Partly Cloudy
3:56 PM 66.0 °F 36.0 °F 33% 30.09 in 10.0 mi North 8.1 mph - N/A   Partly Cloudy
4:56 PM 64.0 °F 35.1 °F 34% 30.10 in 10.0 mi North 3.5 mph - N/A   Partly Cloudy
5:56 PM 60.1 °F 37.0 °F 42% 30.11 in 10.0 mi NNW 3.5 mph - N/A   Scattered Clouds
6:56 PM 55.9 °F 37.0 °F 49% 30.13 in 10.0 mi Calm Calm - N/A   Clear
7:56 PM 50.0 °F 39.0 °F 66% 30.14 in 10.0 mi Calm Calm - N/A   Clear
8:56 PM 46.0 °F 39.0 °F 76% 30.14 in 10.0 mi Calm Calm - N/A   Clear
9:56 PM 43.0 °F 37.0 °F 80% 30.15 in 10.0 mi Calm Calm - N/A   Clear
10:56 PM 42.1 °F 37.0 °F 82% 30.17 in 10.0 mi Calm Calm - N/A   Clear
11:56 PM 41.0 °F 36.0 °F 82% 30.17 in 10.0 mi Calm Calm - N/A   Clear